Hourly Weather Allendorf

Today, 28 February, Sunday

Time Temperature Precipitation Wind Pressure Humidity
00:00 +3°C° 0 mm 1 mps 743 mmHg 95%
01:00 +2°C° 0 mm 1 mps 743 mmHg 97%
02:00 +2°C° 0 mm 1 mps 743 mmHg 97%
03:00 +1°C° 0 mm 1 mps 742 mmHg 97%
04:00 +1°C° 0 mm 1 mps 742 mmHg 97%
05:00 +1°C° 0 mm 1 mps 742 mmHg 97%
06:00 +1°C° 0 mm 1 mps 742 mmHg 96%
07:00 +1°C° 0 mm 1 mps 742 mmHg 97%
08:00 +2°C° 0 mm 1 mps 742 mmHg 90%
09:00 +4°C° 0 mm 1 mps 742 mmHg 84%
10:00 +5°C° 0 mm 2 mps 742 mmHg 78%
11:00 +6°C° 0 mm 2 mps 742 mmHg 73%
12:00 +7°C° 0 mm 2 mps 742 mmHg 68%
13:00 +8°C° 0 mm 2 mps 742 mmHg 63%
14:00 +8°C° 0 mm 2 mps 742 mmHg 65%
15:00 +8°C° 0 mm 2 mps 741 mmHg 66%
16:00 +8°C° 0 mm 2 mps 740 mmHg 68%
17:00 +7°C° 0 mm 2 mps 740 mmHg 75%
18:00 +5°C° 0 mm 2 mps 740 mmHg 83%
19:00 +3°C° 0 mm 2 mps 740 mmHg 90%
20:00 +4°C° 0 mm 1 mps 741 mmHg 91%
21:00 +3°C° 0 mm 1 mps 741 mmHg 93%
22:00 +3°C° 0 mm 1 mps 741 mmHg 94%
23:00 +3°C° 0 mm 1 mps 741 mmHg 94%

Tomorrow, 1 March, Monday

Time Temperature Precipitation Wind Pressure Humidity
00:00 +2°C° 0 mm 1 mps 741 mmHg 95%
01:00 +2°C° 0 mm 1 mps 741 mmHg 96%
02:00 +2°C° 0 mm 1 mps 740 mmHg 96%
03:00 +2°C° 0 mm 1 mps 740 mmHg 96%
04:00 +2°C° 0 mm 1 mps 740 mmHg 97%
05:00 +2°C° 0 mm 1 mps 740 mmHg 96%
06:00 +1°C° 0 mm 1 mps 740 mmHg 96%
07:00 +1°C° 0 mm 1 mps 740 mmHg 95%
08:00 +3°C° 0 mm 1 mps 740 mmHg 89%
09:00 +4°C° 0 mm 1 mps 740 mmHg 83%
10:00 +6°C° 0 mm 1 mps 740 mmHg 77%
11:00 +6°C° 0 mm 2 mps 740 mmHg 71%
12:00 +7°C° 0 mm 2 mps 740 mmHg 65%
13:00 +9°C° 0 mm 2 mps 740 mmHg 59%
14:00 +9°C° 0 mm 2 mps 740 mmHg 60%
15:00 +9°C° 0 mm 2 mps 739 mmHg 60%
16:00 +10°C° 0 mm 2 mps 739 mmHg 61%
17:00 +8°C° 0 mm 2 mps 739 mmHg 69%
18:00 +7°C° 0 mm 1 mps 739 mmHg 77%
19:00 +5°C° 0 mm 1 mps 739 mmHg 85%
20:00 +5°C° 0 mm 1 mps 739 mmHg 86%
21:00 +4°C° 0 mm 1 mps 739 mmHg 86%
22:00 +4°C° 0 mm 1 mps 739 mmHg 87%
23:00 +4°C° 0 mm 1 mps 739 mmHg 87%

Day after tomorrow, 2 March, Tuesday

Time Temperature Precipitation Wind Pressure Humidity
00:00 +4°C° 0 mm 1 mps 739 mmHg 87%
01:00 +4°C° 0 mm 1 mps 739 mmHg 87%
02:00 +3°C° 0 mm 1 mps 739 mmHg 88%
03:00 +3°C° 0 mm 1 mps 738 mmHg 88%
04:00 +3°C° 0 mm 1 mps 738 mmHg 88%
05:00 +3°C° 0 mm 1 mps 738 mmHg 88%
06:00 +3°C° 0 mm 1 mps 738 mmHg 88%
07:00 +2°C° 0 mm 1 mps 738 mmHg 88%
08:00 +4°C° 0 mm 1 mps 739 mmHg 82%
09:00 +6°C° 0 mm 1 mps 739 mmHg 76%
10:00 +8°C° 0 mm 1 mps 739 mmHg 69%
11:00 +9°C° 0 mm 1 mps 739 mmHg 64%
12:00 +9°C° 0 mm 2 mps 739 mmHg 60%
13:00 +12°C° 0 mm 2 mps 739 mmHg 55%
14:00 +12°C° 0 mm 2 mps 739 mmHg 55%
15:00 +12°C° 0 mm 2 mps 738 mmHg 55%
16:00 +12°C° 0 mm 2 mps 738 mmHg 56%
17:00 +10°C° 0 mm 1 mps 738 mmHg 62%
18:00 +8°C° 0 mm 1 mps 738 mmHg 69%
19:00 +6°C° 0 mm 1 mps 738 mmHg 76%
20:00 +6°C° 0 mm 1 mps 738 mmHg 78%
21:00 +5°C° 0 mm 1 mps 738 mmHg 80%
22:00 +5°C° 0 mm 1 mps 738 mmHg 82%
23:00 +5°C° 0 mm 1 mps 738 mmHg 83%

3 March, Wednesday

Time Temperature Precipitation Wind Pressure Humidity
00:00 +4°C° 0 mm 1 mps 738 mmHg 83%
01:00 +4°C° 0 mm 1 mps 738 mmHg 84%
02:00 +4°C° 0 mm 1 mps 737 mmHg 84%
03:00 +3°C° 0 mm 0 mps 737 mmHg 84%
04:00 +3°C° 0 mm 0 mps 737 mmHg 84%
05:00 +2°C° 0 mm 0 mps 737 mmHg 84%
06:00 +3°C° 0 mm 1 mps 737 mmHg 84%
07:00 +3°C° 0 mm 1 mps 737 mmHg 84%
08:00 +5°C° 0 mm 1 mps 737 mmHg 79%
09:00 +7°C° 0 mm 1 mps 737 mmHg 73%
10:00 +9°C° 0 mm 1 mps 737 mmHg 68%
11:00 +9°C° 0 mm 2 mps 736 mmHg 64%
12:00 +10°C° 0 mm 2 mps 736 mmHg 61%
13:00 +13°C° 0 mm 2 mps 736 mmHg 57%
14:00 +13°C° 0 mm 2 mps 735 mmHg 57%
15:00 +13°C° 0 mm 2 mps 735 mmHg 58%
16:00 +13°C° 0 mm 2 mps 734 mmHg 58%
17:00 +10°C° 0 mm 2 mps 734 mmHg 66%
18:00 +9°C° 0 mm 1 mps 733 mmHg 74%
19:00 +8°C° 0 mm 1 mps 733 mmHg 82%
20:00 +7°C° 0 mm 1 mps 733 mmHg 83%
21:00 +7°C° 0 mm 1 mps 733 mmHg 85%
22:00 +6°C° 0 mm 1 mps 732 mmHg 86%
23:00 +6°C° 0 mm 1 mps 732 mmHg 87%

4 March, Thursday

Time Temperature Precipitation Wind Pressure Humidity
00:00 +6°C° 0 mm 1 mps 732 mmHg 88%
01:00 +5°C° 0 mm 1 mps 731 mmHg 89%
02:00 +5°C° 0 mm 1 mps 731 mmHg 90%
03:00 +5°C° 0 mm 1 mps 730 mmHg 91%
04:00 +5°C° 0 mm 1 mps 730 mmHg 92%
05:00 +5°C° 0 mm 1 mps 730 mmHg 93%
06:00 +5°C° 0 mm 1 mps 729 mmHg 94%
07:00 +5°C° 0 mm 1 mps 729 mmHg 94%
08:00 +6°C° 0.3 mm 1 mps 729 mmHg 94%
09:00 +6°C° 0.3 mm 1 mps 729 mmHg 94%
10:00 +7°C° 0.3 mm 1 mps 728 mmHg 93%
11:00 +7°C° 0.3 mm 1 mps 728 mmHg 93%
12:00 +8°C° 0.3 mm 1 mps 728 mmHg 92%
13:00 +8°C° 0.3 mm 1 mps 728 mmHg 92%
14:00 +9°C° 0.2 mm 1 mps 727 mmHg 89%
15:00 +9°C° 0.2 mm 1 mps 727 mmHg 87%
16:00 +9°C° 0.2 mm 1 mps 726 mmHg 85%
17:00 +9°C° 0.8 mm 1 mps 726 mmHg 88%
18:00 +8°C° 0.8 mm 1 mps 726 mmHg 91%
19:00 +6°C° 0.8 mm 2 mps 726 mmHg 95%
20:00 +5°C° 0.6 mm 2 mps 726 mmHg 94%
21:00 +5°C° 0.6 mm 2 mps 726 mmHg 93%
22:00 +4°C° 0.6 mm 2 mps 726 mmHg 92%
23:00 +3°C° 0 mm 3 mps 726 mmHg 92%

5 March, Friday

Time Temperature Precipitation Wind Pressure Humidity
00:00 +2°C° 0 mm 3 mps 726 mmHg 92%
01:00 +1°C° 0 mm 3 mps 726 mmHg 92%
02:00 +1°C° 0 mm 3 mps 727 mmHg 92%
03:00 +1°C° 0 mm 3 mps 727 mmHg 91%
04:00 0°C° 0 mm 3 mps 727 mmHg 91%
05:00 0°C° 0.2 mm 3 mps 728 mmHg 92%
06:00 -2°C° 0.2 mm 4 mps 729 mmHg 92%
07:00 -2°C° 0.2 mm 4 mps 729 mmHg 93%
08:00 -2°C° 0.1 mm 5 mps 730 mmHg 88%
09:00 -2°C° 0.1 mm 5 mps 731 mmHg 82%
10:00 -2°C° 0.1 mm 5 mps 731 mmHg 77%
11:00 -1°C° 0 mm 5 mps 732 mmHg 70%
12:00 -1°C° 0 mm 5 mps 732 mmHg 63%
13:00 0°C° 0 mm 5 mps 733 mmHg 56%
14:00 0°C° 0 mm 5 mps 733 mmHg 56%
15:00 0°C° 0 mm 4 mps 733 mmHg 55%
16:00 0°C° 0 mm 4 mps 734 mmHg 55%
17:00 0°C° 0 mm 3 mps 734 mmHg 60%
18:00 -2°C° 0 mm 3 mps 734 mmHg 65%
19:00 -3°C° 0 mm 2 mps 735 mmHg 70%
20:00 -3°C° 0 mm 2 mps 735 mmHg 70%
21:00 -4°C° 0 mm 2 mps 736 mmHg 70%
22:00 -2°C° 0 mm 1 mps 736 mmHg 70%
23:00 -2°C° 0 mm 1 mps 737 mmHg 69%
Show more